Four Nabucco — ZGAP9 — position and weather

sailwx.info

Track history (hours):
 
Tides and Currents Weather Stations Pressure Air Temp Water Temp Dewpoint Dewpoint Depression Visibility Wind Speed Wind Dir Waves Ship Positions

Four Nabucco

Last reported at 2014-Oct-25 16:19 UTC. Time now 2014-Oct-26 03:03 UTC.
Position N 39°04' W 009°57'.

Length 180 m; draft 9.7 m.

Type: Cargo ship. MMSI: 319030700.

Date/timePositionNaut miles runAvg speedWind from/ knotsBaromVisibWave heightAir tempDewpointWater temp
2014-Oct-25 16:19N 39°04' W 009°57'911.8
2014-Oct-25 15:33N 38°55' W 009°57'1211.8
2014-Oct-25 14:32N 38°43' W 009°56'4812.0
2014-Oct-25 10:32N 37°56' W 009°43'1212.0
2014-Oct-25 09:33N 37°44' W 009°40'1111.5
2014-Oct-25 08:33N 37°33' W 009°37'1212.0
2014-Oct-25 07:32N 37°21' W 009°33'8211.6
2014-Oct-25 00:32N 36°24' W 008°20'1412.9
2014-Oct-24 23:27N 36°18' W 008°05'1212.9
2014-Oct-24 22:33N 36°14' W 007°51'12112.1
2014-Oct-24 12:33N 36°00' W 005°22'7 5.2
2014-Oct-24 11:11N 36°02' W 005°14'3 4.0
2014-Oct-24 10:32N 36°02' W 005°17'7 7.3
2014-Oct-24 09:33N 35°55' W 005°19'1 1.0
2014-Oct-24 08:31N 35°55' W 005°20'0 0.0
2014-Oct-24 07:31N 35°55' W 005°20'0 0.0
2014-Oct-24 06:33N 35°55' W 005°20'0 0.0
2014-Oct-24 05:31N 35°55' W 005°20'0 0.2
2014-Oct-24 04:33N 35°55' W 005°20'  
2014-Oct-21 09:33N 37°49' E 009°07'1211.4
2014-Oct-21 08:27N 37°47' E 009°22'3512.1
2014-Oct-21 05:33N 37°39' E 010°06'  
2014-Oct-18 15:23N 35°46' E 024°58'1012.1
2014-Oct-18 14:33N 35°46' E 025°10'1212.0
2014-Oct-18 13:33N 35°45' E 025°25'16110.7
2014-Oct-17 22:25N 35°17' E 028°40'  
Track history (hours):
 
Tides and Currents Weather Stations Pressure Air Temp Water Temp Dewpoint Dewpoint Depression Visibility Wind Speed Wind Dir Waves Ship Positions

Four Nabucco

Last reported at 2014-Oct-25 16:19 UTC. Time now 2014-Oct-26 03:03 UTC.
Position N 39°04' W 009°57'.

Length 180 m; draft 9.7 m.

Type: Cargo ship. MMSI: 319030700.

Date/timePositionNaut miles runAvg speedWind from/ knotsBaromVisibWave heightAir tempDewpointWater temp
2014-Oct-25 16:19N 39°04' W 009°57'911.8
2014-Oct-25 15:33N 38°55' W 009°57'1211.8
2014-Oct-25 14:32N 38°43' W 009°56'4812.0
2014-Oct-25 10:32N 37°56' W 009°43'1212.0
2014-Oct-25 09:33N 37°44' W 009°40'1111.5
2014-Oct-25 08:33N 37°33' W 009°37'1212.0
2014-Oct-25 07:32N 37°21' W 009°33'8211.6
2014-Oct-25 00:32N 36°24' W 008°20'1412.9
2014-Oct-24 23:27N 36°18' W 008°05'1212.9
2014-Oct-24 22:33N 36°14' W 007°51'12112.1
2014-Oct-24 12:33N 36°00' W 005°22'7 5.2
2014-Oct-24 11:11N 36°02' W 005°14'3 4.0
2014-Oct-24 10:32N 36°02' W 005°17'7 7.3
2014-Oct-24 09:33N 35°55' W 005°19'1 1.0
2014-Oct-24 08:31N 35°55' W 005°20'0 0.0
2014-Oct-24 07:31N 35°55' W 005°20'0 0.0
2014-Oct-24 06:33N 35°55' W 005°20'0 0.0
2014-Oct-24 05:31N 35°55' W 005°20'0 0.2
2014-Oct-24 04:33N 35°55' W 005°20'  
2014-Oct-21 09:33N 37°49' E 009°07'1211.4
2014-Oct-21 08:27N 37°47' E 009°22'3512.1
2014-Oct-21 05:33N 37°39' E 010°06'  
2014-Oct-18 15:23N 35°46' E 024°58'1012.1
2014-Oct-18 14:33N 35°46' E 025°10'1212.0
2014-Oct-18 13:33N 35°45' E 025°25'16110.7
2014-Oct-17 22:25N 35°17' E 028°40'  

Dump ship's entire track history